Location: Most
(50.5133°N, 13.6207°E)
Time: 22:27:07
(UTC+02:00)

ISS - Pass Details

Date: 19 September 2019
Orbit: 411 x 421 km, 51.6° (Epoch: 17 September)

Event Time Altitude Azimuth Distance (km) Brightness Sun altitude
Rises 20:35:41 0° 205° (SSW) 2,332 0.1 -13.9°
Reaches altitude 10° 20:38:13 10° 184° (S) 1,474 -1.2 -14.3°
Enters shadow 20:39:19 15° 167° (SSE) 1,218 -1.7 -14.5°
